Location: Unspecified
(40.7945°N, 0.0000°E)
Time: 19:51:37
(UTC+00:00)

TIGRISAT - Pass Details

Date: 01 September 2019
Orbit: 605 x 690 km, 97.7° (Epoch: 23 September)

Event Time Altitude Azimuth Distance (km) Brightness Sun altitude
Rises 21:57:49 0° 357° (N) 2,988 ? -33.6°
Reaches altitude 10° 22:00:31 10° 341° (NNW) 2,055 ? -33.9°
Maximum altitude 22:03:46 20° 294° (WNW) 1,471 ? -34.3°
Enters shadow 22:03:51 20° 293° (WNW) 1,471 ? -34.3°
